PA3DZX-13 Weather Reports


time (UTC)temp
F
wind
direction
speed
knots
gust
knots
rain 1hr
in
rain 24hr
in
rain mn
in
humidity
%
barometer
mb
20260505083924 46 24 9.6 13.0 0.00 0.00 0.00 95 1011.8
20260505082423 46 21 7.0 13.0 0.00 0.00 0.00 94 1011.9
20260505080923 46 19 7.0 14.8 0.00 0.00 0.00 95 1011.7
20260505075422 46 18 9.6 14.8 0.00 0.00 0.00 95 1011.8
20260505073922 46 21 7.0 11.3 0.00 0.00 0.00 96 1011.9
20260505072421 46 22 7.0 11.3 0.00 0.00 0.00 96 1011.9
20260505070921 46 22 7.0 11.3 0.00 0.00 0.00 96 1011.9
20260505065419 46 22 7.0 11.3 0.00 0.00 0.00 96 1011.9
20260505063919 46 27 7.0 13.0 0.00 0.00 0.00 97 1011.8
20260505062420 46 24 7.0 13.0 0.00 0.00 0.00 97 1011.8
20260505060919 44 19 7.0 11.3 0.00 0.00 0.00 97 1011.7
20260505055418 44 19 7.0 11.3 0.00 0.00 0.00 98 1011.7
20260505053917 46 25 9.6 11.3 0.00 0.00 0.00 97 1011.6
20260505052417 46 27 7.0 11.3 0.00 0.00 0.00 97 1011.6
20260505050917 46 28 7.0 11.3 0.00 0.00 0.00 97 1011.6
20260505040914 46 28 9.6 14.8 0.06 0.00 0.00 97 1011.5
20260505035413 46 21 7.0 11.3 0.06 0.00 0.00 98 1011.6
20260505033912 46 24 7.0 13.0 0.10 0.00 0.00 97 1011.8
20260505032412 46 18 7.0 13.0 0.08 0.00 0.00 98 1011.7
20260505030912 48 10 7.0 13.0 0.12 0.00 0.00 98 1011.6
20260505025412 48 12 9.6 13.0 0.11 0.00 0.00 97 1011.6
20260505023911 50 358 7.0 11.3 0.07 0.00 0.00 99 1011.7
20260505022412 50 351 7.0 11.3 0.06 0.00 0.00 99 1011.7
20260505020911 50 2 7.0 9.6 0.11 0.00 0.00 99 1011.7
20260505015411 51 8 5.2 9.6 0.11 0.00 0.00 99 1011.7
20260505013910 51 14 5.2 9.6 0.04 0.00 0.00 99 1011.8
20260505012409 51 9 5.2 7.0 0.04 0.00 0.00 99 1011.8
20260505010909 51 15 5.2 9.6 0.03 0.00 0.00 99 1011.9
20260505005409 51 13 5.2 9.6 0.02 0.00 0.00 99 1011.9
20260505003909 51 9 5.2 9.6 0.02 0.00 0.00 98 1012.1
20260505002409 51 3 5.2 9.6 0.01 0.00 0.00 98 1012.3
20260505000908 51 0 5.2 9.6 0.02 0.00 0.00 97 1012.3
20260504235408 51 11 5.2 9.6 0.04 0.00 0.00 97 1012.4
20260504233907 53 9 5.2 7.0 0.01 0.00 0.00 97 1012.5
20260504232406 53 0 3.5 7.0 0.01 0.00 0.00 98 1012.6
20260504230906 53 10 5.2 7.0 0.00 0.00 0.00 98 1012.6
20260504225406 53 11 3.5 9.6 0.00 0.00 0.00 98 1012.6
20260504223906 53 24 5.2 9.6 0.01 0.00 0.00 98 1012.6
20260504222406 53 18 5.2 7.0 0.01 0.00 0.00 97 1012.7
20260504220905 55 15 3.5 7.0 0.03 0.00 0.00 98 1012.9
20260504215405 55 24 5.2 9.6 0.03 0.00 0.00 97 1012.9
20260504213904 55 10 5.2 7.0 0.01 0.00 0.00 97 1013.0
20260504212403 55 4 5.2 7.0 0.03 0.00 0.00 97 1013.0
20260504210903 55 23 5.2 7.0 0.05 0.00 0.00 96 1013.1
20260504205403 57 15 5.2 7.0 0.05 0.00 0.00 96 1013.1
20260504203903 57 16 3.5 5.2 0.07 0.00 0.00 97 1013.1
20260504202402 57 13 1.7 3.5 0.17 0.00 0.00 98 1013.0
20260504200901 57 1 1.7 3.5 0.09 0.00 0.00 98 1013.0
20260504195402 57 19 1.7 3.5 0.18 0.00 0.00 99 1013.0
20260504193900 57 66 1.7 3.5 0.66 0.00 0.00 95 1013.0
20260504192400 59 38 1.7 7.0 0.03 0.00 0.00 93 1013.0
20260504190901 59 26 5.2 11.3 0.00 0.00 0.00 90 1012.5
20260504185400 59 33 5.2 11.3 0.00 0.00 0.00 88 1012.4
20260504183900 59 9 5.2 11.3 0.00 0.00 0.00 87 1012.4
20260504182359 60 9 7.0 11.3 0.00 0.00 0.00 85 1012.4
20260504180858 60 9 3.5 9.6 0.00 0.00 0.00 85 1012.3
20260504175357 60 28 7.0 9.6 0.00 0.00 0.00 84 1012.3
20260504173856 60 16 5.2 9.6 0.00 0.00 0.00 83 1012.2
20260504172355 62 7 5.2 9.6 0.00 0.00 0.00 81 1012.2
20260504170855 62 350 7.0 9.6 0.00 0.00 0.00 79 1012.2
20260504150851 64 355 3.5 5.2 0.00 0.00 0.00 68 1012.3
20260504140850 66 98 1.7 1.7 0.00 0.00 0.00 67 1012.7